Time,TemperatureF,DewpointF,PressureIn,WindDirection,WindDirectionDegrees,WindSpeedMPH,WindSpeedGustMPH,Humidity,HourlyPrecipIn,Conditions,Clouds,dailyrainin,SoftwareType,DateUTC
2013-05-01 00:02:00,37.0,28.0,-100.00,NW,315,11.0,23.0,69,0.00,,,-99.99,,2013-05-01 05:02:00,
2013-05-01 00:11:00,37.0,28.0,-100.00,NW,315,11.0,23.0,69,0.00,,,-99.99,,2013-05-01 05:11:00,
2013-05-01 00:21:00,36.0,27.0,-100.00,NW,305,7.0,20.0,68,0.00,,,-99.99,,2013-05-01 05:21:00,
2013-05-01 00:32:00,36.0,27.0,-100.00,NW,325,6.0,22.0,68,0.00,,,-99.99,,2013-05-01 05:32:00,
2013-05-01 00:42:00,36.0,27.0,-100.00,NW,325,6.0,22.0,68,0.00,,,-99.99,,2013-05-01 05:42:00,
2013-05-01 00:52:00,36.0,27.0,-100.00,NW,315,7.0,23.0,68,0.00,,,-99.99,,2013-05-01 05:52:00,
2013-05-01 01:02:00,36.0,26.0,-100.00,NW,305,7.0,24.0,68,0.00,,,-99.99,,2013-05-01 06:02:00,
2013-05-01 01:12:00,36.0,26.0,-100.00,NW,305,7.0,24.0,68,0.00,,,-99.99,,2013-05-01 06:12:00,
2013-05-01 01:22:00,35.0,26.0,-100.00,NW,315,4.0,20.0,67,0.00,,,-99.99,,2013-05-01 06:22:00,
2013-05-01 01:32:00,35.0,26.0,-100.00,WNW,295,4.0,9.0,67,0.00,,,-99.99,,2013-05-01 06:32:00,
2013-05-01 01:42:00,35.0,26.0,-100.00,WNW,295,4.0,9.0,67,0.00,,,-99.99,,2013-05-01 06:42:00,
2013-05-01 01:51:00,35.0,25.0,-100.00,NW,305,9.0,28.0,66,0.00,,,-99.99,,2013-05-01 06:51:00,
2013-05-01 02:01:00,34.0,23.0,-100.00,NW,315,7.0,26.0,63,0.00,,,-99.99,,2013-05-01 07:01:00,
2013-05-01 02:11:00,34.0,23.0,-100.00,NW,315,7.0,26.0,63,0.00,,,-99.99,,2013-05-01 07:11:00,
2013-05-01 02:21:00,34.0,23.0,-100.00,NW,320,4.0,21.0,63,0.00,,,-99.99,,2013-05-01 07:21:00,
2013-05-01 02:32:00,34.0,23.0,-100.00,WNW,300,4.0,19.0,64,0.00,,,-99.99,,2013-05-01 07:32:00,
2013-05-01 02:42:00,34.0,23.0,-100.00,WNW,300,4.0,19.0,64,0.00,,,-99.99,,2013-05-01 07:42:00,
2013-05-01 02:52:00,33.0,24.0,-100.00,WNW,300,6.0,9.0,66,0.00,,,-99.99,,2013-05-01 07:52:00,
2013-05-01 03:02:00,33.0,23.0,-100.00,WNW,295,4.0,19.0,66,0.00,,,-99.99,,2013-05-01 08:02:00,
2013-05-01 03:11:00,33.0,23.0,-100.00,WNW,295,4.0,19.0,66,0.00,,,-99.99,,2013-05-01 08:11:00,
2013-05-01 03:22:00,33.0,23.0,-100.00,WNW,300,4.0,9.0,68,0.00,,,-99.99,,2013-05-01 08:22:00,
2013-05-01 03:32:00,33.0,24.0,-100.00,NW,305,4.0,9.0,69,0.00,,,-99.99,,2013-05-01 08:32:00,
2013-05-01 03:42:00,33.0,24.0,-100.00,NW,305,4.0,9.0,69,0.00,,,-99.99,,2013-05-01 08:42:00,
2013-05-01 03:53:00,32.0,24.0,-100.00,NW,305,6.0,9.0,70,0.00,,,-99.99,,2013-05-01 08:53:00,
2013-05-01 04:01:00,32.0,23.0,-100.00,NW,305,4.0,9.0,69,0.00,,,-99.99,,2013-05-01 09:01:00,
2013-05-01 04:12:00,32.0,23.0,-100.00,NW,305,4.0,9.0,69,0.00,,,-99.99,,2013-05-01 09:12:00,
2013-05-01 04:21:00,32.0,23.0,-100.00,NW,315,4.0,9.0,69,0.00,,,-99.99,,2013-05-01 09:21:00,
2013-05-01 04:33:00,32.0,23.0,-100.00,WNW,295,6.0,19.0,70,0.00,,,-99.99,,2013-05-01 09:33:00,
2013-05-01 04:42:00,32.0,23.0,-100.00,WNW,295,6.0,19.0,70,0.00,,,-99.99,,2013-05-01 09:42:00,
2013-05-01 04:52:00,31.0,23.0,-100.00,NW,315,4.0,9.0,70,0.00,,,-99.99,,2013-05-01 09:52:00,
2013-05-01 05:02:00,31.0,24.0,-100.00,NW,305,4.0,9.0,72,0.00,,,-99.99,,2013-05-01 10:02:00,
2013-05-01 05:12:00,31.0,24.0,-100.00,NW,305,4.0,9.0,72,0.00,,,-99.99,,2013-05-01 10:12:00,
2013-05-01 05:22:00,31.0,24.0,-100.00,NW,325,4.0,9.0,73,0.00,,,-99.99,,2013-05-01 10:22:00,
2013-05-01 05:33:00,31.0,23.0,-100.00,NW,310,2.0,21.0,73,0.00,,,-99.99,,2013-05-01 10:33:00,
2013-05-01 05:42:00,31.0,23.0,-100.00,NW,310,2.0,21.0,73,0.00,,,-99.99,,2013-05-01 10:42:00,
2013-05-01 05:52:00,31.0,24.0,-100.00,NW,305,4.0,9.0,74,0.00,,,-99.99,,2013-05-01 10:52:00,
2013-05-01 06:02:00,30.0,23.0,-100.00,NW,310,4.0,9.0,74,0.00,,,-99.99,,2013-05-01 11:02:00,
2013-05-01 06:11:00,30.0,23.0,-100.00,NW,310,4.0,9.0,74,0.00,,,-99.99,,2013-05-01 11:11:00,
2013-05-01 06:22:00,30.0,23.0,-100.00,NW,305,3.0,9.0,74,0.00,,,-99.99,,2013-05-01 11:22:00,
2013-05-01 06:32:00,31.0,24.0,-100.00,NW,310,3.0,9.0,74,0.00,,,-99.99,,2013-05-01 11:32:00,
2013-05-01 06:42:00,31.0,24.0,-100.00,NW,310,3.0,9.0,74,0.00,,,-99.99,,2013-05-01 11:42:00,
2013-05-01 06:51:00,31.0,24.0,-100.00,NW,315,4.0,9.0,74,0.00,,,-99.99,,2013-05-01 11:51:00,
2013-05-01 07:01:00,31.0,24.0,-100.00,NW,310,4.0,9.0,75,0.00,,,-99.99,,2013-05-01 12:01:00,
2013-05-01 07:11:00,31.0,24.0,-100.00,NW,310,4.0,9.0,75,0.00,,,-99.99,,2013-05-01 12:11:00,
2013-05-01 07:21:00,31.0,24.0,-100.00,NW,320,4.0,9.0,75,0.00,,,-99.99,,2013-05-01 12:21:00,
2013-05-01 07:32:00,31.0,24.0,-100.00,NW,310,4.0,9.0,74,0.00,,,-99.99,,2013-05-01 12:32:00,
2013-05-01 07:41:00,31.0,24.0,-100.00,NW,310,4.0,9.0,74,0.00,,,-99.99,,2013-05-01 12:41:00,
2013-05-01 07:52:00,31.0,24.0,-100.00,NW,305,6.0,9.0,74,0.00,,,-99.99,,2013-05-01 12:52:00,
2013-05-01 08:01:00,31.0,24.0,-100.00,NW,310,6.0,9.0,74,0.00,,,-99.99,,2013-05-01 13:01:00,
2013-05-01 08:11:00,31.0,24.0,-100.00,NW,310,6.0,9.0,74,0.00,,,-99.99,,2013-05-01 13:11:00,
2013-05-01 08:21:00,31.0,24.0,-100.00,NW,310,4.0,9.0,75,0.00,,,-99.99,,2013-05-01 13:21:00,
2013-05-01 08:32:00,31.0,24.0,-100.00,NW,305,5.0,9.0,75,0.00,,,-99.99,,2013-05-01 13:32:00,
2013-05-01 08:42:00,31.0,24.0,-100.00,NW,305,5.0,9.0,75,0.00,,,-99.99,,2013-05-01 13:42:00,
2013-05-01 08:52:00,32.0,25.0,-100.00,NW,305,4.0,9.0,74,0.00,,,-99.99,,2013-05-01 13:52:00,
2013-05-01 09:02:00,32.0,25.0,-100.00,NW,305,6.0,9.0,74,0.00,,,-99.99,,2013-05-01 14:02:00,
2013-05-01 09:11:00,32.0,25.0,-100.00,NW,305,6.0,9.0,74,0.00,,,-99.99,,2013-05-01 14:11:00,
2013-05-01 09:21:00,32.0,25.0,-100.00,WNW,300,3.0,9.0,74,0.00,,,-99.99,,2013-05-01 14:21:00,
2013-05-01 09:32:00,33.0,26.0,-100.00,NNW,330,6.0,9.0,74,0.00,,,-99.99,,2013-05-01 14:32:00,
2013-05-01 09:42:00,33.0,26.0,-100.00,NNW,330,6.0,9.0,74,0.00,,,-99.99,,2013-05-01 14:42:00,
2013-05-01 09:51:00,34.0,25.0,-100.00,NNW,335,4.0,9.0,71,0.00,,,-99.99,,2013-05-01 14:51:00,
2013-05-01 10:01:00,34.0,26.0,-100.00,NW,310,4.0,9.0,72,0.00,,,-99.99,,2013-05-01 15:01:00,
2013-05-01 10:11:00,34.0,26.0,-100.00,NW,310,4.0,9.0,72,0.00,,,-99.99,,2013-05-01 15:11:00,
2013-05-01 10:21:00,34.0,24.0,-100.00,NW,310,4.0,22.0,67,0.00,,,-99.99,,2013-05-01 15:21:00,
2013-05-01 10:33:00,34.0,25.0,-100.00,WNW,300,4.0,19.0,68,0.00,,,-99.99,,2013-05-01 15:33:00,
2013-05-01 10:43:00,34.0,25.0,-100.00,WNW,300,4.0,19.0,68,0.00,,,-99.99,,2013-05-01 15:43:00,
2013-05-01 10:53:00,35.0,24.0,-100.00,NNW,340,5.0,9.0,64,0.00,,,-99.99,,2013-05-01 15:53:00,
2013-05-01 11:03:00,36.0,24.0,-100.00,NNW,330,4.0,9.0,62,0.00,,,-99.99,,2013-05-01 16:03:00,
2013-05-01 11:12:00,36.0,24.0,-100.00,NNW,330,4.0,9.0,62,0.00,,,-99.99,,2013-05-01 16:12:00,
2013-05-01 11:22:00,37.0,25.0,-100.00,NW,325,6.0,9.0,61,0.00,,,-99.99,,2013-05-01 16:22:00,
2013-05-01 11:32:00,37.0,25.0,-100.00,NW,310,4.0,19.0,61,0.00,,,-99.99,,2013-05-01 16:32:00,
2013-05-01 11:42:00,37.0,25.0,-100.00,NW,310,4.0,19.0,61,0.00,,,-99.99,,2013-05-01 16:42:00,
2013-05-01 11:53:00,37.0,26.0,-100.00,NW,315,4.0,19.0,62,0.00,,,-99.99,,2013-05-01 16:53:00,
2013-05-01 12:02:00,37.0,26.0,-100.00,NW,305,4.0,21.0,62,0.00,,,-99.99,,2013-05-01 17:02:00,
2013-05-01 12:12:00,37.0,26.0,-100.00,NW,305,4.0,21.0,62,0.00,,,-99.99,,2013-05-01 17:12:00,
2013-05-01 12:21:00,38.0,26.0,-100.00,NW,310,4.0,21.0,61,0.00,,,-99.99,,2013-05-01 17:21:00,
2013-05-01 12:32:00,38.0,26.0,-100.00,NNW,340,7.0,20.0,61,0.00,,,-99.99,,2013-05-01 17:32:00,
2013-05-01 12:42:00,38.0,26.0,-100.00,NNW,340,7.0,20.0,61,0.00,,,-99.99,,2013-05-01 17:42:00,
2013-05-01 12:52:00,39.0,26.0,-100.00,NNW,330,5.0,9.0,60,0.00,,,-99.99,,2013-05-01 17:52:00,
2013-05-01 13:01:00,39.0,26.0,-100.00,NNW,330,4.0,22.0,59,0.00,,,-99.99,,2013-05-01 18:01:00,
2013-05-01 13:11:00,39.0,26.0,-100.00,NNW,330,4.0,22.0,59,0.00,,,-99.99,,2013-05-01 18:11:00,
2013-05-01 13:22:00,39.0,26.0,-100.00,NW,320,4.0,19.0,60,0.00,,,-99.99,,2013-05-01 18:22:00,
2013-05-01 13:32:00,39.0,26.0,-100.00,NW,320,7.0,23.0,59,0.00,,,-99.99,,2013-05-01 18:32:00,
2013-05-01 13:42:00,39.0,26.0,-100.00,NW,320,7.0,23.0,59,0.00,,,-99.99,,2013-05-01 18:42:00,
2013-05-01 13:52:00,40.0,26.0,-100.00,WNW,300,4.0,22.0,59,0.00,,,-99.99,,2013-05-01 18:52:00,
2013-05-01 14:02:00,40.0,27.0,-100.00,NW,325,4.0,19.0,59,0.00,,,-99.99,,2013-05-01 19:02:00,
2013-05-01 14:11:00,40.0,27.0,-100.00,NW,325,4.0,19.0,59,0.00,,,-99.99,,2013-05-01 19:11:00,
2013-05-01 14:22:00,40.0,27.0,-100.00,NW,325,4.0,20.0,60,0.00,,,-99.99,,2013-05-01 19:22:00,
2013-05-01 14:32:00,39.0,27.0,-100.00,NNW,335,4.0,20.0,61,0.00,,,-99.99,,2013-05-01 19:32:00,
2013-05-01 14:43:00,39.0,27.0,-100.00,NNW,335,4.0,20.0,61,0.00,,,-99.99,,2013-05-01 19:43:00,
2013-05-01 14:52:00,40.0,27.0,-100.00,NNW,335,3.0,9.0,60,0.00,,,-99.99,,2013-05-01 19:52:00,
2013-05-01 15:01:00,40.0,28.0,-100.00,NW,320,6.0,9.0,60,0.00,,,-99.99,,2013-05-01 20:01:00,
2013-05-01 15:11:00,40.0,28.0,-100.00,NW,320,6.0,9.0,60,0.00,,,-99.99,,2013-05-01 20:11:00,
2013-05-01 15:21:00,40.0,28.0,-100.00,NW,310,4.0,9.0,60,0.00,,,-99.99,,2013-05-01 20:21:00,
2013-05-01 15:32:00,40.0,28.0,-100.00,NNW,345,3.0,9.0,60,0.00,,,-99.99,,2013-05-01 20:32:00,
2013-05-01 15:42:00,40.0,28.0,-100.00,NNW,345,3.0,9.0,60,0.00,,,-99.99,,2013-05-01 20:42:00,
2013-05-01 15:52:00,41.0,28.0,-100.00,NNW,340,4.0,9.0,60,0.00,,,-99.99,,2013-05-01 20:52:00,
2013-05-01 16:01:00,41.0,28.0,-100.00,NNW,330,4.0,21.0,59,0.00,,,-99.99,,2013-05-01 21:01:00,
2013-05-01 16:11:00,41.0,28.0,-100.00,NNW,330,4.0,21.0,59,0.00,,,-99.99,,2013-05-01 21:11:00,
2013-05-01 16:22:00,41.0,28.0,-100.00,North,355,4.0,9.0,59,0.00,,,-99.99,,2013-05-01 21:22:00,
2013-05-01 16:32:00,42.0,29.0,-100.00,NW,325,4.0,9.0,59,0.00,,,-99.99,,2013-05-01 21:32:00,
2013-05-01 16:43:00,42.0,29.0,-100.00,NW,325,4.0,9.0,59,0.00,,,-99.99,,2013-05-01 21:43:00,
2013-05-01 16:53:00,41.0,29.0,-100.00,North,0,6.0,21.0,60,0.00,,,-99.99,,2013-05-01 21:53:00,
2013-05-01 17:03:00,41.0,29.0,-100.00,NNW,345,4.0,9.0,61,0.00,,,-99.99,,2013-05-01 22:03:00,
2013-05-01 17:12:00,41.0,29.0,-100.00,NNW,345,4.0,9.0,61,0.00,,,-99.99,,2013-05-01 22:12:00,
2013-05-01 17:23:00,41.0,29.0,-100.00,NW,320,4.0,9.0,61,0.00,,,-99.99,,2013-05-01 22:23:00,
2013-05-01 17:33:00,41.0,29.0,-100.00,NNW,340,5.0,9.0,60,0.00,,,-99.99,,2013-05-01 22:33:00,
2013-05-01 17:42:00,41.0,29.0,-100.00,NNW,340,5.0,9.0,60,0.00,,,-99.99,,2013-05-01 22:42:00,
2013-05-01 17:52:00,41.0,29.0,-100.00,NNW,340,4.0,19.0,61,0.00,,,-99.99,,2013-05-01 22:52:00,
2013-05-01 18:02:00,41.0,29.0,-100.00,North,0,6.0,9.0,61,0.00,,,-99.99,,2013-05-01 23:02:00,
2013-05-01 18:12:00,41.0,29.0,-100.00,North,0,6.0,9.0,61,0.00,,,-99.99,,2013-05-01 23:12:00,
2013-05-01 18:21:00,42.0,29.0,-100.00,NNW,335,6.0,19.0,59,0.00,,,-99.99,,2013-05-01 23:21:00,
2013-05-01 18:32:00,42.0,29.0,-100.00,North,5,4.0,9.0,59,0.00,,,-99.99,,2013-05-01 23:32:00,
2013-05-01 18:42:00,42.0,29.0,-100.00,North,5,4.0,9.0,59,0.00,,,-99.99,,2013-05-01 23:42:00,
2013-05-01 18:52:00,41.0,27.0,-100.00,NW,320,5.0,22.0,58,0.00,,,-99.99,,2013-05-01 23:52:00,
2013-05-01 19:01:00,41.0,28.0,-100.00,North,0,4.0,9.0,59,0.00,,,-99.99,,2013-05-02 00:01:00,
2013-05-01 19:11:00,41.0,28.0,-100.00,North,0,4.0,9.0,59,0.00,,,-99.99,,2013-05-02 00:11:00,
2013-05-01 19:21:00,41.0,28.0,-100.00,North,0,5.0,9.0,58,0.00,,,-99.99,,2013-05-02 00:21:00,
2013-05-01 19:32:00,41.0,28.0,-100.00,North,0,4.0,9.0,59,0.00,,,-99.99,,2013-05-02 00:32:00,
2013-05-01 19:42:00,41.0,28.0,-100.00,North,0,4.0,9.0,59,0.00,,,-99.99,,2013-05-02 00:42:00,
2013-05-01 19:52:00,41.0,28.0,-100.00,NNW,340,4.0,20.0,59,0.00,,,-99.99,,2013-05-02 00:52:00,
2013-05-01 20:01:00,41.0,28.0,-100.00,NNW,345,6.0,9.0,59,0.00,,,-99.99,,2013-05-02 01:01:00,
2013-05-01 20:11:00,41.0,28.0,-100.00,NNW,345,6.0,9.0,59,0.00,,,-99.99,,2013-05-02 01:11:00,
2013-05-01 20:21:00,40.0,28.0,-100.00,NNW,345,5.0,9.0,60,0.00,,,-99.99,,2013-05-02 01:21:00,
2013-05-01 20:32:00,40.0,28.0,-100.00,North,5,4.0,9.0,61,0.00,,,-99.99,,2013-05-02 01:32:00,
2013-05-01 20:42:00,40.0,28.0,-100.00,North,5,4.0,9.0,61,0.00,,,-99.99,,2013-05-02 01:42:00,
2013-05-01 20:52:00,39.0,28.0,-100.00,NNE,30,4.0,9.0,63,0.00,,,-99.99,,2013-05-02 01:52:00,
2013-05-01 21:02:00,39.0,28.0,-100.00,North,0,4.0,9.0,65,0.00,,,-99.99,,2013-05-02 02:02:00,
2013-05-01 21:12:00,39.0,28.0,-100.00,North,0,4.0,9.0,65,0.00,,,-99.99,,2013-05-02 02:12:00,
2013-05-01 21:21:00,38.0,28.0,-100.00,NNE,25,4.0,9.0,66,0.00,,,-99.99,,2013-05-02 02:21:00,
2013-05-01 21:32:00,38.0,28.0,-100.00,North,0,4.0,9.0,66,0.00,,,-99.99,,2013-05-02 02:32:00,
2013-05-01 21:42:00,38.0,28.0,-100.00,North,0,4.0,9.0,66,0.00,,,-99.99,,2013-05-02 02:42:00,
2013-05-01 21:51:00,38.0,28.0,-100.00,North,0,4.0,9.0,66,0.00,,,-99.99,,2013-05-02 02:51:00,
2013-05-01 22:01:00,37.0,28.0,-100.00,North,10,1.0,6.0,69,0.00,,,-99.99,,2013-05-02 03:01:00,
2013-05-01 22:11:00,37.0,28.0,-100.00,North,10,1.0,6.0,69,0.00,,,-99.99,,2013-05-02 03:11:00,
2013-05-01 22:22:00,36.0,28.0,-100.00,NE,40,2.0,6.0,71,0.00,,,-99.99,,2013-05-02 03:22:00,
2013-05-01 22:33:00,35.0,27.0,-100.00,NE,40,1.0,4.0,72,0.00,,,-99.99,,2013-05-02 03:33:00,
2013-05-01 22:43:00,35.0,27.0,-100.00,NE,40,1.0,4.0,72,0.00,,,-99.99,,2013-05-02 03:43:00,
2013-05-01 22:53:00,34.0,27.0,-100.00,NE,45,1.0,4.0,75,0.00,,,-99.99,,2013-05-02 03:53:00,
2013-05-01 23:03:00,34.0,28.0,-100.00,NE,45,2.0,6.0,76,0.00,,,-99.99,,2013-05-02 04:03:00,
2013-05-01 23:12:00,34.0,28.0,-100.00,NE,45,2.0,6.0,76,0.00,,,-99.99,,2013-05-02 04:12:00,
2013-05-01 23:23:00,33.0,27.0,-100.00,NE,45,2.0,4.0,78,0.00,,,-99.99,,2013-05-02 04:23:00,
2013-05-01 23:33:00,33.0,27.0,-100.00,NE,40,1.0,4.0,79,0.00,,,-99.99,,2013-05-02 04:33:00,
2013-05-01 23:42:00,33.0,27.0,-100.00,NE,40,1.0,4.0,79,0.00,,,-99.99,,2013-05-02 04:42:00,
2013-05-01 23:52:00,33.0,28.0,-100.00,NE,40,1.0,6.0,81,0.00,,,-99.99,,2013-05-02 04:52:00,